Molniya-1

unknown
NORAD ID: 15214 Int'l Des: 1984-089 Owner: NPOE Country: SU
MEOELLIPTICALHEO_ELLIPTICALMOLNIYA_TYPE

About Molniya-1

Description loading...

Live Position

Loading 3D Globe...

Upcoming Passes

Altitude History

Altitude vs Time

uPlot chart will show altitude changes over time

Two-Line Element Set

1 15214U 84089A 26058.30592451 .00000146 00000-0 00000+0 0 9992
2 15214 62.9550 139.2325 6944211 278.7568 14.4694 2.29641792 9916
Epoch: Feb 27, 2026 • Age: 110 hours

Current Status

Altitude 21163.2 km
Velocity 3.54 km/s
Sub-Earth Point 37.25°N, 69.94°W
Launch Date Aug 24, 1984
Age 41.5 years
Type other

Technical Details

Classification Payload
Mass 1650.00 kg
Dry Mass 1620.00 kg
Total Mass 1650.00 kg
Length 4.40 m
Diameter 1.40 m
Span 8.60 m
Shape Cyl + 6 Pan
Manufacturer NPOPM
Bus Type Molniya-1
Phase Status In Orbit
Owner/State NPOE/SU

Large Constellations

Loading constellations...